Regional Weather Roundup
Issued by NWS

Home | Current Version | Previous Version | Text Only | Print | Product List | Glossary Off
Versions: 1 2 3 4 5 6 7 8 9 10 11 12 13 14 15 16 17 18 19 20 21 22 23 24 25 26 27 28 29 30 31 32 33 34 35 36 37 38 39 40 41 42 43 44 45 46 47 48 49 50

000
ASUS45 KBOU 031410
RWRCO

WEATHER ROUNDUP FOR COLORADO
NATIONAL WEATHER SERVICE DENVER/BOULDER CO
800 AM MDT FRI JUL 03 2015

NOTE: "FAIR" INDICATES FEW OR NO CLOUDS BELOW 12000 FEET WITH NO
SIGNIFICANT WEATHER AND/OR OBSTRUCTIONS TO VISIBILITY.

COZ001>005-013-030-031-031500-
...NORTHWEST COLORADO...

CITY           SKY/WX    TMP DP  RH WIND       PRES   REMARKS
CRAIG          SUNNY     64  48  56 CALM      30.21S
HAYDEN         SUNNY     63  45  51 E7        30.23S
MEEKER         SUNNY     63  48  58 E3        30.22R
MOUNT WERNER   NOT AVBL
STEAMBOAT SPGS SUNNY     58  47  65 CALM      30.26S
WALDEN         SUNNY     52  45  76 CALM      30.36S
$$

COZ006>008-011-031500-
...WEST CENTRAL VALLEYS...

CITY           SKY/WX    TMP DP  RH WIND       PRES   REMARKS
GRAND JUNCTION MOSUNNY   76  51  41 SE13      30.08R
MONTROSE       PTSUNNY   69  53  56 E14G22    30.19S
EAGLE          MOSUNNY   64  48  55 CALM      30.27S
RIFLE          SUNNY     70  49  47 CALM      30.16R
DELTA          PTSUNNY   76  49  38 E7        30.15R
NUCLA          PTSUNNY   70  50  49 E7        30.23S
$$

COZ017>023-064>068-031500-
...SOUTHWEST COLORADO...

CITY           SKY/WX    TMP DP  RH WIND       PRES   REMARKS
DURANGO        PTSUNNY   60  50  69 CALM      30.27R
CORTEZ         SUNNY     67  54  63 E6        30.21R
PAGOSA SPRINGS PTSUNNY   59  51  75 CALM      30.35S
TELLURIDE      LGT RAIN  56  48  76 CALM      30.47R
WOLF CREEK PAS NOT AVBL
$$

COZ009-010-012-014-032>034-037-058>063-031500-
...CENTRAL COLORADO...

CITY           SKY/WX    TMP DP  RH WIND       PRES   REMARKS
ASPEN          PTSUNNY   60  48  64 VRB6      30.33S
BUENA VISTA    PTSUNNY   55  48  79 CALM      30.38R
COPPER MTN     MOSUNNY   54  37  54 W8        30.64R
BERTHOUD PASS  FAIR      45  34  65 NW12G18   30.67R
COTTONWOOD PAS NOT AVBL
GUNNISON       PTSUNNY   54  45  71 N3        30.42R
KREMMLING      SUNNY     59  43  55 CALM      30.34S
LEADVILLE      CLOUDY    50  48  93 CALM      30.48S
MONARCH PASS   PTSUNNY   48  39  71 S5        30.73R
SALIDA         PTSUNNY   58  52  81 NE5       30.42F
SUNLIGHT       MOSUNNY   59  41  51 CALM      30.57S
WILKERSON PASS PTSUNNY   52  39  62 NW6       30.60R
$$

COZ069>075-031500-
...SAN LUIS VALLEY/SANGRE DE CRISTO MOUNTAINS...

CITY           SKY/WX    TMP DP  RH WIND       PRES   REMARKS
ALAMOSA        MOSUNNY   55  52  89 CALM      30.35S FOG
LA VETA PASS   SUNNY     50  43  76 MISG      30.48S
SAGUACHE       PTSUNNY   54  50  87 NW8       30.38S
$$

COZ035-036-038>040-031500-
...NORTHERN COLORADO FRONT RANGE...

CITY           SKY/WX    TMP DP  RH WIND       PRES   REMARKS
DENVER INTL AP MOSUNNY   64  57  78 SE5       30.22R
DMNS CITY PARK   N/A     63  59  87 N10       30.23S
AURORA         MOSUNNY   62  57  85 SW1       30.23S
FRONT RANGE AP MOSUNNY   66  59  77 SE8       30.22S
ERIE MUNI ARPT MOSUNNY   62  61  96 W5        30.22S FOG
BOULDER MUN AP PTSUNNY   61  61 100 CALM      30.22S FOG
CENTENNIAL     MOSUNNY   63  55  75 N5        30.24R
BROOMFIELD     HAZE      61  59  94 N5        30.25S VSB 1
FORT COLLINS   PTSUNNY   63  59  88 SW3       30.23S
LONGMONT       CLOUDY    66  61  85 N5        30.24S HAZE
$$

COZ041-046-047-076>085-087-088-031500-
...PIKES PEAK/PALMER DIVIDE AND SOUTHERN FOOTHILLS...

CITY           SKY/WX    TMP DP  RH WIND       PRES   REMARKS
COLO. SPRINGS  MOSUNNY   64  57  78 E6        30.26S
A. F. ACADEMY  MOSUNNY   63  53  70 N5        30.27S
ELLICOTT       MOSUNNY  N/A N/A N/A E10       30.25R
FALCON         MOSUNNY   61  53  75 SE3       30.31R
FORT CARSON    MOSUNNY   62  56  80 N5        30.23R
LIMON          SUNNY     63  56  78 S6        30.21S
MONUMENT HILL  NOT AVBL
TRINIDAD       SUNNY     68  57  68 E5        30.22S
$$

COZ042>045-048>051-090-091-031500-
...NORTHEAST COLORADO...

CITY           SKY/WX    TMP DP  RH WIND       PRES   REMARKS
GREELEY ARPT   SUNNY     63  61  94 W8        30.20F
AKRON          SUNNY     66  58  75 NW6       30.18R
BURLINGTON     MOSUNNY   69  58  67 N6        30.15R
WRAY           SUNNY     70  58  66 CALM      30.12S
STERLING       MOSUNNY   66  59  77 N8          N/A
HOLYOKE        SUNNY     72  61  68 CALM      30.13S
FORT MORGAN    PTSUNNY   67  58  71 CALM      30.19R
$$

COZ086-089-092>099-031500-
...SOUTHEAST COLORADO...

CITY           SKY/WX    TMP DP  RH WIND       PRES   REMARKS
PUEBLO         MOSUNNY   69  56  62 CALM      30.18R
LA JUNTA       SUNNY     72  56  57 NW5       30.16R
LAMAR          SUNNY     69  64  84 NE6       30.11S HAZE
SPRINGFIELD      N/A     71  62  73 SW5       30.14S
$$



USA.gov is the U.S. government's official web portal to all federal, state and local government web resources and services.